Time,TemperatureF,DewpointF,PressureIn,WindDirection,WindDirectionDegrees,WindSpeedMPH,WindSpeedGustMPH,Humidity,HourlyPrecipIn,Conditions,Clouds,dailyrainin,SoftwareType,DateUTC
2013-08-20 00:01:00,69.8,68.6,30.14,East,84,0.0,0.0,96,0.00,,---,0.52,VWS V14.01,2013-08-20 04:01:00,
2013-08-20 00:07:00,69.7,68.5,30.14,East,84,0.0,0.0,96,0.00,,---,0.00,VWS V14.01,2013-08-20 04:07:00,
2013-08-20 00:12:00,69.6,68.4,30.14,East,85,0.0,0.0,96,0.00,,---,0.00,VWS V14.01,2013-08-20 04:12:00,
2013-08-20 00:17:00,69.6,68.4,30.14,East,85,0.0,0.0,96,0.00,,---,0.00,VWS V14.01,2013-08-20 04:17:00,
2013-08-20 00:22:00,69.5,68.3,30.14,East,84,0.0,0.0,96,0.00,,---,0.00,VWS V14.01,2013-08-20 04:22:00,
2013-08-20 00:27:00,69.5,68.3,30.14,East,84,0.0,0.0,96,0.00,,---,0.00,VWS V14.01,2013-08-20 04:27:00,
2013-08-20 00:32:00,69.3,68.1,30.14,East,84,0.0,0.0,96,0.00,,---,0.00,VWS V14.01,2013-08-20 04:32:00,
2013-08-20 00:37:00,69.1,67.9,30.14,East,85,0.0,0.0,96,0.00,,---,0.00,VWS V14.01,2013-08-20 04:37:00,
2013-08-20 00:42:00,69.0,67.8,30.14,East,85,0.0,0.0,96,0.00,,---,0.00,VWS V14.01,2013-08-20 04:42:00,
2013-08-20 00:47:00,69.0,67.8,30.14,East,84,0.0,0.0,96,0.00,,---,0.00,VWS V14.01,2013-08-20 04:47:00,
2013-08-20 00:52:00,68.8,67.6,30.14,East,84,0.0,0.0,96,0.00,,---,0.00,VWS V14.01,2013-08-20 04:52:00,
2013-08-20 00:57:00,68.8,67.6,30.14,East,84,0.0,0.0,96,0.00,,---,0.00,VWS V14.01,2013-08-20 04:57:00,
2013-08-20 01:02:00,68.8,67.6,30.14,East,85,0.0,0.0,96,0.00,,---,0.00,VWS V14.01,2013-08-20 05:02:00,
2013-08-20 01:07:00,68.8,67.6,30.14,East,85,0.0,0.0,96,0.00,,---,0.00,VWS V14.01,2013-08-20 05:07:00,
2013-08-20 01:12:00,68.8,67.9,30.14,East,84,0.0,0.0,97,0.00,,---,0.00,VWS V14.01,2013-08-20 05:12:00,
2013-08-20 01:17:00,68.7,67.8,30.14,East,84,0.0,0.0,97,0.00,,---,0.00,VWS V14.01,2013-08-20 05:17:00,
2013-08-20 01:22:00,68.6,67.7,30.14,East,84,0.0,0.0,97,0.00,,---,0.00,VWS V14.01,2013-08-20 05:22:00,
2013-08-20 01:27:00,68.7,67.8,30.14,East,84,0.0,0.0,97,0.00,,---,0.00,VWS V14.01,2013-08-20 05:27:00,
2013-08-20 01:32:00,68.9,68.0,30.14,ENE,70,0.0,1.0,97,0.00,,---,0.00,VWS V14.01,2013-08-20 05:32:00,
2013-08-20 01:37:00,69.1,68.2,30.13,ENE,68,0.0,0.0,97,0.00,,---,0.00,VWS V14.01,2013-08-20 05:37:00,
2013-08-20 01:42:00,69.0,68.1,30.13,ENE,68,0.0,0.0,97,0.00,,---,0.00,VWS V14.01,2013-08-20 05:42:00,
2013-08-20 01:47:00,69.0,68.1,30.13,ENE,68,0.0,0.0,97,0.00,,---,0.00,VWS V14.01,2013-08-20 05:47:00,
2013-08-20 01:52:00,68.8,67.9,30.13,ENE,68,0.0,1.0,97,0.00,,---,0.00,VWS V14.01,2013-08-20 05:52:00,
2013-08-20 01:57:00,68.4,67.2,30.13,NNW,343,0.0,1.0,96,0.00,,---,0.00,VWS V14.01,2013-08-20 05:57:00,
2013-08-20 02:02:00,68.1,66.9,30.13,NNW,342,0.0,1.0,96,0.00,,---,0.00,VWS V14.01,2013-08-20 06:02:00,
2013-08-20 02:07:00,67.9,67.0,30.13,NNW,343,1.0,1.0,97,0.00,,---,0.00,VWS V14.01,2013-08-20 06:07:00,
2013-08-20 02:12:00,67.8,66.9,30.13,NNW,343,0.0,0.0,97,0.00,,---,0.00,VWS V14.01,2013-08-20 06:12:00,
2013-08-20 02:17:00,67.9,67.0,30.13,NNW,343,0.0,1.0,97,0.00,,---,0.00,VWS V14.01,2013-08-20 06:17:00,
2013-08-20 02:23:00,67.9,67.0,30.13,NNW,343,0.0,0.0,97,0.00,,---,0.00,VWS V14.01,2013-08-20 06:23:00,
2013-08-20 02:28:00,68.1,67.2,30.12,NNE,25,0.0,1.0,97,0.00,,---,0.00,VWS V14.01,2013-08-20 06:28:00,
2013-08-20 02:33:00,68.1,67.2,30.13,NNE,26,0.0,1.0,97,0.00,,---,0.00,VWS V14.01,2013-08-20 06:33:00,
2013-08-20 02:38:00,68.0,67.1,30.12,NNE,26,0.0,0.0,97,0.00,,---,0.00,VWS V14.01,2013-08-20 06:38:00,
2013-08-20 02:43:00,68.0,67.1,30.12,NNE,26,0.0,0.0,97,0.00,,---,0.00,VWS V14.01,2013-08-20 06:43:00,
2013-08-20 02:48:00,68.1,67.2,30.12,NNE,26,0.0,0.0,97,0.00,,---,0.00,VWS V14.01,2013-08-20 06:48:00,
2013-08-20 02:53:00,68.2,67.3,30.12,NNE,26,0.0,0.0,97,0.00,,---,0.00,VWS V14.01,2013-08-20 06:53:00,
2013-08-20 02:58:00,68.2,67.3,30.12,NNE,26,0.0,0.0,97,0.00,,---,0.00,VWS V14.01,2013-08-20 06:58:00,
2013-08-20 03:03:00,68.1,67.2,30.12,NNE,26,0.0,0.0,97,0.00,,---,0.00,VWS V14.01,2013-08-20 07:03:00,
2013-08-20 03:08:00,68.1,67.2,30.12,NNE,26,0.0,0.0,97,0.00,,---,0.00,VWS V14.01,2013-08-20 07:08:00,
2013-08-20 03:13:00,68.1,67.2,30.12,NNE,26,0.0,1.0,97,0.00,,---,0.00,VWS V14.01,2013-08-20 07:13:00,
2013-08-20 03:18:00,68.1,67.2,30.12,NNE,26,0.0,0.0,97,0.00,,---,0.00,VWS V14.01,2013-08-20 07:18:00,
2013-08-20 03:23:00,67.9,67.0,30.12,NNE,26,0.0,0.0,97,0.00,,---,0.00,VWS V14.01,2013-08-20 07:23:00,
2013-08-20 03:28:00,67.6,66.7,30.12,NW,325,1.0,2.0,97,0.00,,---,0.00,VWS V14.01,2013-08-20 07:28:00,
2013-08-20 03:33:00,66.9,65.7,30.12,NW,322,2.0,2.0,96,0.00,,---,0.00,VWS V14.01,2013-08-20 07:33:00,
2013-08-20 03:38:00,66.7,65.8,30.12,NW,322,0.0,1.0,97,0.00,,---,0.00,VWS V14.01,2013-08-20 07:38:00,
2013-08-20 03:43:00,66.6,65.7,30.12,NW,326,0.0,1.0,97,0.00,,---,0.00,VWS V14.01,2013-08-20 07:43:00,
2013-08-20 03:48:00,66.7,65.8,30.12,NNW,336,1.0,2.0,97,0.00,,---,0.00,VWS V14.01,2013-08-20 07:48:00,
2013-08-20 03:53:00,66.6,65.7,30.12,NW,323,2.0,2.0,97,0.00,,---,0.00,VWS V14.01,2013-08-20 07:53:00,
2013-08-20 03:58:00,66.4,65.5,30.12,NNW,335,2.0,2.0,97,0.00,,---,0.00,VWS V14.01,2013-08-20 07:58:00,
2013-08-20 04:03:00,66.3,65.4,30.12,NNW,328,1.0,2.0,97,0.00,,---,0.00,VWS V14.01,2013-08-20 08:03:00,
2013-08-20 04:08:00,66.2,65.3,30.12,NNW,329,0.0,2.0,97,0.00,,---,0.00,VWS V14.01,2013-08-20 08:08:00,
2013-08-20 04:13:00,66.1,65.2,30.12,NNW,329,0.0,1.0,97,0.00,,---,0.00,VWS V14.01,2013-08-20 08:13:00,
2013-08-20 04:18:00,66.1,65.2,30.11,NNW,329,0.0,1.0,97,0.00,,---,0.00,VWS V14.01,2013-08-20 08:18:00,
2013-08-20 04:23:00,66.0,65.1,30.11,NNW,330,0.0,1.0,97,0.00,,---,0.00,VWS V14.01,2013-08-20 08:23:00,
2013-08-20 04:28:00,66.1,65.2,30.12,NNW,331,0.0,1.0,97,0.00,,---,0.00,VWS V14.01,2013-08-20 08:28:00,
2013-08-20 04:33:00,66.1,65.2,30.12,NNW,332,1.0,1.0,97,0.00,,---,0.00,VWS V14.01,2013-08-20 08:33:00,
2013-08-20 04:38:00,66.1,65.2,30.12,NW,326,0.0,2.0,97,0.00,,---,0.00,VWS V14.01,2013-08-20 08:38:00,
2013-08-20 04:43:00,66.0,65.1,30.11,NW,326,0.0,1.0,97,0.00,,---,0.00,VWS V14.01,2013-08-20 08:43:00,
2013-08-20 04:48:00,66.0,65.1,30.12,NW,326,0.0,1.0,97,0.00,,---,0.00,VWS V14.01,2013-08-20 08:48:00,
2013-08-20 04:54:00,66.1,65.5,30.12,NW,326,1.0,1.0,98,0.00,,---,0.00,VWS V14.01,2013-08-20 08:54:00,
2013-08-20 04:59:00,66.1,65.5,30.11,NW,326,0.0,1.0,98,0.00,,---,0.00,VWS V14.01,2013-08-20 08:59:00,
2013-08-20 05:04:00,66.0,65.4,30.11,NW,326,0.0,0.0,98,0.00,,---,0.00,VWS V14.01,2013-08-20 09:04:00,
2013-08-20 05:09:00,66.0,65.4,30.12,NW,326,0.0,0.0,98,0.00,,---,0.00,VWS V14.01,2013-08-20 09:09:00,
2013-08-20 05:14:00,66.1,65.5,30.12,NW,326,0.0,0.0,98,0.00,,---,0.00,VWS V14.01,2013-08-20 09:14:00,
2013-08-20 05:19:00,66.1,65.5,30.12,NW,326,0.0,1.0,98,0.00,,---,0.00,VWS V14.01,2013-08-20 09:19:00,
2013-08-20 05:24:00,66.2,65.6,30.12,NNW,328,0.0,2.0,98,0.00,,---,0.00,VWS V14.01,2013-08-20 09:24:00,
2013-08-20 05:29:00,66.1,65.5,30.12,NNW,332,1.0,2.0,98,0.00,,---,0.00,VWS V14.01,2013-08-20 09:29:00,
2013-08-20 05:34:00,66.0,65.4,30.12,NNW,338,0.0,2.0,98,0.00,,---,0.00,VWS V14.01,2013-08-20 09:34:00,
2013-08-20 05:39:00,66.0,65.4,30.12,NNW,338,1.0,1.0,98,0.00,,---,0.00,VWS V14.01,2013-08-20 09:39:00,
2013-08-20 05:44:00,66.0,65.4,30.12,North,4,0.0,1.0,98,0.00,,---,0.00,VWS V14.01,2013-08-20 09:44:00,
2013-08-20 05:49:00,66.0,65.4,30.12,NNW,344,0.0,1.0,98,0.00,,---,0.00,VWS V14.01,2013-08-20 09:49:00,
2013-08-20 05:54:00,66.1,65.5,30.12,NNW,339,0.0,2.0,98,0.00,,---,0.00,VWS V14.01,2013-08-20 09:54:00,
2013-08-20 05:59:00,66.1,65.5,30.12,NNW,328,1.0,2.0,98,0.00,,---,0.00,VWS V14.01,2013-08-20 09:59:00,
2013-08-20 06:04:00,66.1,65.5,30.13,NNW,335,1.0,3.0,98,0.00,,---,0.00,VWS V14.01,2013-08-20 10:04:00,
2013-08-20 06:09:00,66.0,65.4,30.13,NNW,335,0.0,2.0,98,0.00,,---,0.00,VWS V14.01,2013-08-20 10:09:00,
2013-08-20 06:14:00,66.0,65.4,30.13,NNW,329,0.0,2.0,98,0.00,,---,0.00,VWS V14.01,2013-08-20 10:14:00,
2013-08-20 06:19:00,66.0,65.4,30.13,NNW,329,0.0,1.0,98,0.00,,---,0.00,VWS V14.01,2013-08-20 10:19:00,
2013-08-20 06:24:00,66.0,65.4,30.13,NNW,330,1.0,1.0,98,0.00,,---,0.00,VWS V14.01,2013-08-20 10:24:00,
2013-08-20 06:29:00,66.0,65.4,30.13,NNW,333,0.0,1.0,98,0.00,,---,0.00,VWS V14.01,2013-08-20 10:29:00,
2013-08-20 06:34:00,66.0,65.4,30.13,NNW,333,0.0,0.0,98,0.00,,---,0.00,VWS V14.01,2013-08-20 10:34:00,
2013-08-20 06:39:00,66.0,65.4,30.14,NNW,333,0.0,0.0,98,0.00,,---,0.00,VWS V14.01,2013-08-20 10:39:00,
2013-08-20 06:44:00,66.0,65.4,30.14,NNW,333,0.0,0.0,98,0.00,,---,0.00,VWS V14.01,2013-08-20 10:44:00,
2013-08-20 06:49:00,66.0,65.4,30.14,NNW,333,0.0,1.0,98,0.00,,---,0.00,VWS V14.01,2013-08-20 10:49:00,
2013-08-20 06:54:00,66.1,65.5,30.14,NNW,333,0.0,2.0,98,0.00,,---,0.00,VWS V14.01,2013-08-20 10:54:00,
2013-08-20 06:59:00,66.1,65.5,30.14,NNW,333,0.0,1.0,98,0.00,,---,0.00,VWS V14.01,2013-08-20 10:59:00,
2013-08-20 07:04:00,66.2,65.6,30.14,NNW,333,0.0,0.0,98,0.00,,---,0.00,VWS V14.01,2013-08-20 11:04:00,
2013-08-20 07:09:00,66.4,65.8,30.14,NNW,335,0.0,1.0,98,0.01,,---,0.01,VWS V14.01,2013-08-20 11:09:00,
2013-08-20 07:15:00,66.6,66.0,30.14,NNE,16,0.0,1.0,98,0.01,,---,0.01,VWS V14.01,2013-08-20 11:15:00,
2013-08-20 07:20:00,66.8,66.2,30.14,NNE,29,0.0,1.0,98,0.01,,---,0.01,VWS V14.01,2013-08-20 11:20:00,
2013-08-20 07:25:00,66.9,66.3,30.14,NNE,29,0.0,0.0,98,0.01,,---,0.01,VWS V14.01,2013-08-20 11:25:00,
2013-08-20 07:30:00,67.2,66.6,30.14,NNE,20,0.0,1.0,98,0.01,,---,0.01,VWS V14.01,2013-08-20 11:30:00,
2013-08-20 07:35:00,67.2,66.6,30.15,NNE,20,1.0,1.0,98,0.01,,---,0.01,VWS V14.01,2013-08-20 11:35:00,
2013-08-20 07:40:00,67.3,66.7,30.15,NNW,329,1.0,2.0,98,0.01,,---,0.01,VWS V14.01,2013-08-20 11:40:00,
2013-08-20 07:45:00,67.2,66.6,30.15,NNW,329,1.0,2.0,98,0.01,,---,0.01,VWS V14.01,2013-08-20 11:45:00,
2013-08-20 07:50:00,67.0,66.4,30.14,NNW,331,3.0,3.0,98,0.01,,---,0.01,VWS V14.01,2013-08-20 11:50:00,
2013-08-20 07:55:00,67.1,66.5,30.14,NNW,329,0.0,1.0,98,0.01,,---,0.01,VWS V14.01,2013-08-20 11:55:00,
2013-08-20 08:00:00,67.4,66.8,30.15,NNW,328,0.0,1.0,98,0.01,,---,0.01,VWS V14.01,2013-08-20 12:00:00,
2013-08-20 08:05:00,67.7,67.1,30.15,NNW,329,0.0,1.0,98,0.01,,---,0.01,VWS V14.01,2013-08-20 12:05:00,
2013-08-20 08:10:00,68.1,67.5,30.15,NNW,328,0.0,0.0,98,0.01,,---,0.01,VWS V14.01,2013-08-20 12:10:00,
2013-08-20 08:15:00,68.5,67.9,30.15,NNW,328,0.0,1.0,98,0.00,,---,0.01,VWS V14.01,2013-08-20 12:15:00,
2013-08-20 08:20:00,69.1,68.5,30.15,NNW,329,0.0,1.0,98,0.00,,---,0.01,VWS V14.01,2013-08-20 12:20:00,
2013-08-20 08:25:00,69.2,68.6,30.15,North,350,0.0,1.0,98,0.00,,---,0.01,VWS V14.01,2013-08-20 12:25:00,
2013-08-20 08:30:00,69.4,68.8,30.15,NNW,348,0.0,2.0,98,0.00,,---,0.01,VWS V14.01,2013-08-20 12:30:00,
2013-08-20 08:35:00,69.8,69.2,30.16,NNW,348,0.0,1.0,98,0.00,,---,0.01,VWS V14.01,2013-08-20 12:35:00,
2013-08-20 08:40:00,69.9,69.3,30.16,NNW,347,0.0,1.0,98,0.00,,---,0.01,VWS V14.01,2013-08-20 12:40:00,
2013-08-20 08:45:00,70.1,69.5,30.16,NNW,329,1.0,2.0,98,0.00,,---,0.01,VWS V14.01,2013-08-20 12:45:00,
2013-08-20 08:50:00,70.2,69.6,30.16,NNW,333,0.0,2.0,98,0.00,,---,0.01,VWS V14.01,2013-08-20 12:50:00,
2013-08-20 08:55:00,70.4,69.8,30.16,NNW,333,0.0,1.0,98,0.00,,---,0.01,VWS V14.01,2013-08-20 12:55:00,
2013-08-20 09:00:00,70.6,70.0,30.16,NNW,333,0.0,0.0,98,0.00,,---,0.01,VWS V14.01,2013-08-20 13:00:00,
2013-08-20 09:05:00,70.9,70.3,30.16,NNW,333,0.0,0.0,98,0.00,,---,0.01,VWS V14.01,2013-08-20 13:05:00,
2013-08-20 09:10:00,71.1,70.5,30.16,NNW,335,0.0,0.0,98,0.00,,---,0.01,VWS V14.01,2013-08-20 13:10:00,
2013-08-20 09:16:00,71.0,70.1,30.16,NNW,335,0.0,2.0,97,0.00,,---,0.01,VWS V14.01,2013-08-20 13:16:00,
2013-08-20 09:21:00,71.2,70.6,30.17,NNW,335,0.0,1.0,98,0.00,,---,0.01,VWS V14.01,2013-08-20 13:21:00,
2013-08-20 09:26:00,71.4,70.8,30.17,ENE,77,0.0,1.0,98,0.00,,---,0.01,VWS V14.01,2013-08-20 13:26:00,
2013-08-20 09:31:00,71.6,71.0,30.17,NE,56,0.0,2.0,98,0.00,,---,0.01,VWS V14.01,2013-08-20 13:31:00,
2013-08-20 09:36:00,71.7,71.1,30.17,NE,56,1.0,2.0,98,0.00,,---,0.01,VWS V14.01,2013-08-20 13:36:00,
2013-08-20 09:41:00,71.7,70.8,30.17,East,91,1.0,4.0,97,0.00,,---,0.01,VWS V14.01,2013-08-20 13:41:00,
2013-08-20 09:46:00,71.8,70.9,30.17,East,83,0.0,0.0,97,0.00,,---,0.01,VWS V14.01,2013-08-20 13:46:00,
2013-08-20 09:51:00,71.9,71.0,30.17,East,80,0.0,0.0,97,0.00,,---,0.01,VWS V14.01,2013-08-20 13:51:00,
2013-08-20 09:56:00,72.1,71.2,30.17,ENE,57,3.0,3.0,97,0.00,,---,0.01,VWS V14.01,2013-08-20 13:56:00,
2013-08-20 10:01:00,72.0,70.8,30.18,East,87,0.0,1.0,96,0.00,,---,0.01,VWS V14.01,2013-08-20 14:01:00,
2013-08-20 10:06:00,72.2,71.0,30.18,East,87,0.0,0.0,96,0.00,,---,0.01,VWS V14.01,2013-08-20 14:06:00,
2013-08-20 10:11:00,72.3,71.1,30.18,East,84,1.0,2.0,96,0.00,,---,0.01,VWS V14.01,2013-08-20 14:11:00,
2013-08-20 10:16:00,72.4,70.9,30.18,ENE,57,2.0,2.0,95,0.00,,---,0.01,VWS V14.01,2013-08-20 14:16:00,
2013-08-20 10:21:00,72.6,70.8,30.18,East,81,3.0,4.0,94,0.00,,---,0.01,VWS V14.01,2013-08-20 14:21:00,
2013-08-20 10:26:00,72.9,71.1,30.19,NE,54,2.0,4.0,94,0.00,,---,0.01,VWS V14.01,2013-08-20 14:26:00,
2013-08-20 10:31:00,73.3,71.5,30.19,East,81,2.0,2.0,94,0.00,,---,0.01,VWS V14.01,2013-08-20 14:31:00,
2013-08-20 10:36:00,73.7,71.6,30.19,ESE,110,1.0,2.0,93,0.00,,---,0.01,VWS V14.01,2013-08-20 14:36:00,
2013-08-20 10:41:00,74.0,71.8,30.19,East,98,1.0,1.0,93,0.00,,---,0.01,VWS V14.01,2013-08-20 14:41:00,
2013-08-20 10:46:00,74.1,71.3,30.19,SE,125,1.0,2.0,91,0.00,,---,0.01,VWS V14.01,2013-08-20 14:46:00,
2013-08-20 10:51:00,74.2,71.4,30.19,East,86,1.0,1.0,91,0.00,,---,0.01,VWS V14.01,2013-08-20 14:51:00,
2013-08-20 10:56:00,74.5,71.4,30.19,SSE,147,0.0,1.0,90,0.00,,---,0.01,VWS V14.01,2013-08-20 14:56:00,
2013-08-20 11:01:00,74.8,71.7,30.19,ESE,105,1.0,2.0,90,0.00,,---,0.01,VWS V14.01,2013-08-20 15:01:00,
2013-08-20 11:06:00,75.0,71.9,30.20,NNE,19,0.0,0.0,90,0.00,,---,0.01,VWS V14.01,2013-08-20 15:06:00,
2013-08-20 11:12:00,75.1,71.6,30.19,ESE,119,0.0,1.0,89,0.00,,---,0.01,VWS V14.01,2013-08-20 15:12:00,
2013-08-20 11:17:00,75.2,71.7,30.20,ENE,65,1.0,3.0,89,0.00,,---,0.01,VWS V14.01,2013-08-20 15:17:00,
2013-08-20 11:22:00,75.1,71.6,30.20,NW,321,0.0,1.0,89,0.00,,---,0.01,VWS V14.01,2013-08-20 15:22:00,
2013-08-20 11:27:00,75.1,72.0,30.20,NW,321,0.0,0.0,90,0.00,,---,0.01,VWS V14.01,2013-08-20 15:27:00,
2013-08-20 11:32:00,75.1,72.0,30.20,ENE,68,0.0,0.0,90,0.00,,---,0.01,VWS V14.01,2013-08-20 15:32:00,
2013-08-20 11:37:00,75.0,71.9,30.20,NW,315,0.0,0.0,90,0.00,,---,0.01,VWS V14.01,2013-08-20 15:37:00,
2013-08-20 11:42:00,74.9,71.8,30.20,NW,315,0.0,0.0,90,0.00,,---,0.01,VWS V14.01,2013-08-20 15:42:00,
2013-08-20 11:47:00,74.9,71.8,30.20,NW,315,0.0,0.0,90,0.00,,---,0.01,VWS V14.01,2013-08-20 15:47:00,
2013-08-20 11:52:00,75.0,71.5,30.20,NNW,348,1.0,1.0,89,0.00,,---,0.01,VWS V14.01,2013-08-20 15:52:00,
2013-08-20 11:57:00,75.0,71.5,30.20,NE,36,1.0,1.0,89,0.00,,---,0.01,VWS V14.01,2013-08-20 15:57:00,
2013-08-20 12:02:00,75.2,71.7,30.19,North,356,4.0,4.0,89,0.00,,---,0.01,VWS V14.01,2013-08-20 16:02:00,
2013-08-20 12:07:00,75.5,72.0,30.19,NNE,13,1.0,2.0,89,0.00,,---,0.01,VWS V14.01,2013-08-20 16:07:00,
2013-08-20 12:12:00,75.9,72.1,30.19,NW,317,1.0,2.0,88,0.00,,---,0.01,VWS V14.01,2013-08-20 16:12:00,
2013-08-20 12:17:00,76.1,72.3,30.19,NW,312,0.0,2.0,88,0.00,,---,0.01,VWS V14.01,2013-08-20 16:17:00,
2013-08-20 12:22:00,76.3,72.5,30.19,ENE,63,0.0,1.0,88,0.00,,---,0.01,VWS V14.01,2013-08-20 16:22:00,
2013-08-20 12:27:00,76.5,72.3,30.20,NNW,341,0.0,2.0,87,0.00,,---,0.01,VWS V14.01,2013-08-20 16:27:00,
2013-08-20 12:32:00,76.3,72.2,30.20,NE,51,1.0,2.0,87,0.00,,---,0.01,VWS V14.01,2013-08-20 16:32:00,
2013-08-20 12:37:00,76.3,71.8,30.20,NE,36,0.0,0.0,86,0.00,,---,0.01,VWS V14.01,2013-08-20 16:37:00,
2013-08-20 12:42:00,76.5,72.3,30.20,NE,36,0.0,1.0,87,0.00,,---,0.01,VWS V14.01,2013-08-20 16:42:00,
2013-08-20 12:47:00,76.5,72.0,30.20,NNE,28,0.0,1.0,86,0.00,,---,0.01,VWS V14.01,2013-08-20 16:47:00,
2013-08-20 12:52:00,76.3,71.8,30.20,NNE,28,0.0,0.0,86,0.00,,---,0.01,VWS V14.01,2013-08-20 16:52:00,
2013-08-20 12:57:00,76.4,72.2,30.20,NNE,28,0.0,1.0,87,0.00,,---,0.01,VWS V14.01,2013-08-20 16:57:00,
2013-08-20 13:02:00,76.2,72.1,30.20,SE,145,0.0,1.0,87,0.00,,---,0.01,VWS V14.01,2013-08-20 17:02:00,
2013-08-20 13:07:00,76.1,72.6,30.20,SE,145,0.0,0.0,89,0.00,,---,0.01,VWS V14.01,2013-08-20 17:07:00,
2013-08-20 13:12:00,76.1,72.3,30.20,SE,145,0.0,0.0,88,0.00,,---,0.01,VWS V14.01,2013-08-20 17:12:00,
2013-08-20 13:17:00,76.0,72.2,30.20,SE,146,0.0,1.0,88,0.00,,---,0.01,VWS V14.01,2013-08-20 17:17:00,
2013-08-20 13:22:00,76.0,72.5,30.20,SE,133,0.0,1.0,89,0.00,,---,0.01,VWS V14.01,2013-08-20 17:22:00,
2013-08-20 13:27:00,76.2,72.7,30.20,SE,133,0.0,0.0,89,0.00,,---,0.01,VWS V14.01,2013-08-20 17:27:00,
2013-08-20 13:32:00,76.3,72.8,30.20,ESE,117,1.0,1.0,89,0.00,,---,0.01,VWS V14.01,2013-08-20 17:32:00,
2013-08-20 13:38:00,76.6,73.4,30.19,ENE,65,0.0,1.0,90,0.00,,---,0.01,VWS V14.01,2013-08-20 17:38:00,
2013-08-20 13:43:00,76.8,72.6,30.20,East,91,2.0,3.0,87,0.00,,---,0.01,VWS V14.01,2013-08-20 17:43:00,
2013-08-20 13:48:00,77.1,72.9,30.19,SE,141,0.0,1.0,87,0.00,,---,0.01,VWS V14.01,2013-08-20 17:48:00,
2013-08-20 13:53:00,77.4,72.9,30.19,ESE,105,1.0,4.0,86,0.00,,---,0.01,VWS V14.01,2013-08-20 17:53:00,
2013-08-20 13:58:00,77.9,73.4,30.19,NE,51,0.0,2.0,86,0.00,,---,0.01,VWS V14.01,2013-08-20 17:58:00,
2013-08-20 14:03:00,78.4,73.2,30.19,NNW,331,0.0,2.0,84,0.00,,---,0.01,VWS V14.01,2013-08-20 18:03:00,
2013-08-20 14:08:00,78.3,73.4,30.19,ENE,75,0.0,1.0,85,0.00,,---,0.01,VWS V14.01,2013-08-20 18:08:00,
2013-08-20 14:13:00,78.2,73.0,30.18,NW,317,2.0,3.0,84,0.00,,---,0.01,VWS V14.01,2013-08-20 18:13:00,
2013-08-20 14:18:00,77.9,73.0,30.18,NW,326,0.0,3.0,85,0.00,,---,0.01,VWS V14.01,2013-08-20 18:18:00,
2013-08-20 14:23:00,77.9,73.0,30.18,East,82,0.0,2.0,85,0.00,,---,0.01,VWS V14.01,2013-08-20 18:23:00,
2013-08-20 14:28:00,78.0,72.8,30.18,NW,321,0.0,2.0,84,0.00,,---,0.01,VWS V14.01,2013-08-20 18:28:00,
2013-08-20 14:33:00,78.0,73.1,30.18,NNW,330,1.0,3.0,85,0.00,,---,0.01,VWS V14.01,2013-08-20 18:33:00,
2013-08-20 14:38:00,78.0,73.1,30.18,NNW,332,1.0,2.0,85,0.00,,---,0.01,VWS V14.01,2013-08-20 18:38:00,
2013-08-20 14:43:00,78.3,73.8,30.17,NNW,331,0.0,1.0,86,0.00,,---,0.01,VWS V14.01,2013-08-20 18:43:00,
2013-08-20 14:48:00,78.6,73.7,30.17,NNE,33,0.0,2.0,85,0.00,,---,0.01,VWS V14.01,2013-08-20 18:48:00,
2013-08-20 14:53:00,79.0,74.1,30.17,NE,36,0.0,1.0,85,0.00,,---,0.01,VWS V14.01,2013-08-20 18:53:00,
2013-08-20 14:58:00,78.9,73.7,30.17,ENE,63,2.0,2.0,84,0.00,,---,0.01,VWS V14.01,2013-08-20 18:58:00,
2013-08-20 15:03:00,78.8,73.2,30.17,NNW,333,1.0,2.0,83,0.00,,---,0.01,VWS V14.01,2013-08-20 19:03:00,
2013-08-20 15:08:00,79.0,73.8,30.17,NW,309,0.0,1.0,84,0.00,,---,0.01,VWS V14.01,2013-08-20 19:08:00,
2013-08-20 15:13:00,79.1,73.5,30.16,NNE,32,0.0,3.0,83,0.00,,---,0.01,VWS V14.01,2013-08-20 19:13:00,
2013-08-20 15:18:00,79.1,73.5,30.16,North,356,0.0,4.0,83,0.00,,---,0.01,VWS V14.01,2013-08-20 19:18:00,
2013-08-20 15:23:00,79.0,73.0,30.16,NNW,348,3.0,4.0,82,0.00,,---,0.01,VWS V14.01,2013-08-20 19:23:00,
2013-08-20 15:28:00,78.9,73.3,30.15,NW,325,0.0,2.0,83,0.00,,---,0.01,VWS V14.01,2013-08-20 19:28:00,
2013-08-20 15:33:00,79.3,73.7,30.15,NE,40,0.0,2.0,83,0.00,,---,0.01,VWS V14.01,2013-08-20 19:33:00,
2013-08-20 15:38:00,79.6,73.6,30.14,NNE,15,0.0,5.0,82,0.00,,---,0.01,VWS V14.01,2013-08-20 19:38:00,
2013-08-20 15:44:00,79.8,73.8,30.14,NE,42,1.0,2.0,82,0.00,,---,0.01,VWS V14.01,2013-08-20 19:44:00,
2013-08-20 15:49:00,79.9,73.9,30.13,NNE,12,0.0,4.0,82,0.00,,---,0.01,VWS V14.01,2013-08-20 19:49:00,
2013-08-20 15:54:00,80.7,74.0,30.13,NW,321,1.0,2.0,80,0.00,,---,0.01,VWS V14.01,2013-08-20 19:54:00,
2013-08-20 15:59:00,80.4,74.0,30.13,WNW,301,2.0,3.0,81,0.00,,---,0.01,VWS V14.01,2013-08-20 19:59:00,
2013-08-20 16:04:00,80.1,74.1,30.13,NW,305,1.0,4.0,82,0.00,,---,0.01,VWS V14.01,2013-08-20 20:04:00,
2013-08-20 16:09:00,80.1,74.5,30.13,NW,321,0.0,2.0,83,0.00,,---,0.01,VWS V14.01,2013-08-20 20:09:00,
2013-08-20 16:14:00,80.3,74.7,30.14,West,270,0.0,1.0,83,0.00,,---,0.01,VWS V14.01,2013-08-20 20:14:00,
2013-08-20 16:19:00,80.4,74.0,30.13,NE,43,3.0,4.0,81,0.00,,---,0.01,VWS V14.01,2013-08-20 20:19:00,
2013-08-20 16:24:00,79.7,73.4,30.14,ENE,73,2.0,4.0,81,0.00,,---,0.01,VWS V14.01,2013-08-20 20:24:00,
2013-08-20 16:29:00,79.4,73.1,30.13,NE,51,0.0,2.0,81,0.00,,---,0.01,VWS V14.01,2013-08-20 20:29:00,
2013-08-20 16:34:00,79.8,73.4,30.13,NE,50,0.0,1.0,81,0.00,,---,0.01,VWS V14.01,2013-08-20 20:34:00,
2013-08-20 16:39:00,80.2,73.8,30.13,South,169,0.0,2.0,81,0.00,,---,0.01,VWS V14.01,2013-08-20 20:39:00,
2013-08-20 16:44:00,80.0,74.0,30.13,SE,136,1.0,3.0,82,0.00,,---,0.01,VWS V14.01,2013-08-20 20:44:00,
2013-08-20 16:49:00,79.8,73.8,30.13,ESE,108,0.0,2.0,82,0.00,,---,0.01,VWS V14.01,2013-08-20 20:49:00,
2013-08-20 16:54:00,79.6,74.0,30.13,ESE,109,0.0,0.0,83,0.00,,---,0.01,VWS V14.01,2013-08-20 20:54:00,
2013-08-20 16:59:00,79.8,73.8,30.13,ESE,108,0.0,0.0,82,0.00,,---,0.01,VWS V14.01,2013-08-20 20:59:00,
2013-08-20 17:04:00,79.9,73.9,30.13,ESE,109,0.0,0.0,82,0.00,,---,0.01,VWS V14.01,2013-08-20 21:04:00,
2013-08-20 17:09:00,80.3,73.9,30.13,ESE,115,0.0,1.0,81,0.00,,---,0.01,VWS V14.01,2013-08-20 21:09:00,
2013-08-20 17:14:00,80.5,73.8,30.13,ESE,115,0.0,0.0,80,0.00,,---,0.01,VWS V14.01,2013-08-20 21:14:00,
2013-08-20 17:19:00,80.6,73.5,30.13,ESE,115,0.0,1.0,79,0.00,,---,0.01,VWS V14.01,2013-08-20 21:19:00,
2013-08-20 17:24:00,80.5,73.8,30.13,NNW,340,1.0,2.0,80,0.00,,---,0.01,VWS V14.01,2013-08-20 21:24:00,
2013-08-20 17:29:00,80.2,73.8,30.13,ENE,77,0.0,1.0,81,0.00,,---,0.01,VWS V14.01,2013-08-20 21:29:00,
2013-08-20 17:34:00,80.1,73.8,30.13,East,98,1.0,2.0,81,0.00,,---,0.01,VWS V14.01,2013-08-20 21:34:00,
2013-08-20 17:39:00,79.8,73.8,30.13,East,99,1.0,1.0,82,0.00,,---,0.01,VWS V14.01,2013-08-20 21:39:00,
2013-08-20 17:44:00,79.7,73.4,30.13,SSE,155,0.0,2.0,81,0.00,,---,0.01,VWS V14.01,2013-08-20 21:44:00,
2013-08-20 17:49:00,79.9,73.6,30.13,SSE,155,0.0,0.0,81,0.00,,---,0.01,VWS V14.01,2013-08-20 21:49:00,
2013-08-20 17:55:00,80.1,73.8,30.13,SSE,155,0.0,0.0,81,0.00,,---,0.01,VWS V14.01,2013-08-20 21:55:00,
2013-08-20 18:00:00,80.2,74.2,30.13,SSE,156,0.0,0.0,82,0.00,,---,0.01,VWS V14.01,2013-08-20 22:00:00,
2013-08-20 18:05:00,80.1,74.1,30.13,SSE,155,0.0,1.0,82,0.00,,---,0.01,VWS V14.01,2013-08-20 22:05:00,
2013-08-20 18:10:00,79.9,74.6,30.13,SSE,155,0.0,0.0,84,0.00,,---,0.01,VWS V14.01,2013-08-20 22:10:00,
2013-08-20 18:15:00,79.7,74.1,30.14,SE,129,0.0,1.0,83,0.00,,---,0.01,VWS V14.01,2013-08-20 22:15:00,
2013-08-20 18:20:00,79.4,74.2,30.14,East,85,0.0,1.0,84,0.00,,---,0.01,VWS V14.01,2013-08-20 22:20:00,
2013-08-20 18:25:00,79.2,74.3,30.14,East,85,0.0,1.0,85,0.00,,---,0.01,VWS V14.01,2013-08-20 22:25:00,
2013-08-20 18:30:00,79.0,74.1,30.14,East,85,0.0,1.0,85,0.00,,---,0.01,VWS V14.01,2013-08-20 22:30:00,
2013-08-20 18:35:00,78.8,74.3,30.14,East,85,1.0,1.0,86,0.00,,---,0.01,VWS V14.01,2013-08-20 22:35:00,
2013-08-20 18:40:00,78.6,74.1,30.15,East,85,0.0,1.0,86,0.00,,---,0.01,VWS V14.01,2013-08-20 22:40:00,
2013-08-20 18:45:00,78.4,74.2,30.15,East,84,0.0,1.0,87,0.00,,---,0.01,VWS V14.01,2013-08-20 22:45:00,
2013-08-20 18:50:00,78.2,74.0,30.15,East,84,0.0,0.0,87,0.00,,---,0.01,VWS V14.01,2013-08-20 22:50:00,
2013-08-20 18:55:00,78.0,73.8,30.15,East,85,0.0,1.0,87,0.00,,---,0.01,VWS V14.01,2013-08-20 22:55:00,
2013-08-20 19:00:00,78.0,74.2,30.15,East,85,0.0,1.0,88,0.00,,---,0.01,VWS V14.01,2013-08-20 23:00:00,
2013-08-20 19:05:00,77.8,74.0,30.15,East,84,0.0,1.0,88,0.00,,---,0.01,VWS V14.01,2013-08-20 23:05:00,
2013-08-20 19:10:00,77.7,73.9,30.15,East,85,0.0,1.0,88,0.00,,---,0.01,VWS V14.01,2013-08-20 23:10:00,
2013-08-20 19:15:00,77.5,74.0,30.15,East,86,0.0,1.0,89,0.00,,---,0.01,VWS V14.01,2013-08-20 23:15:00,
2013-08-20 19:20:00,77.4,73.9,30.15,East,86,0.0,0.0,89,0.00,,---,0.01,VWS V14.01,2013-08-20 23:20:00,
2013-08-20 19:25:00,77.2,73.7,30.15,East,86,0.0,1.0,89,0.00,,---,0.01,VWS V14.01,2013-08-20 23:25:00,
2013-08-20 19:30:00,77.1,73.9,30.15,East,86,0.0,1.0,90,0.00,,---,0.01,VWS V14.01,2013-08-20 23:30:00,
2013-08-20 19:35:00,77.0,73.8,30.14,East,86,0.0,0.0,90,0.00,,---,0.01,VWS V14.01,2013-08-20 23:35:00,
2013-08-20 19:41:00,76.9,73.8,30.15,East,86,0.0,1.0,90,0.00,,---,0.01,VWS V14.01,2013-08-20 23:41:00,
2013-08-20 19:46:00,76.8,73.7,30.15,East,86,0.0,1.0,90,0.00,,---,0.01,VWS V14.01,2013-08-20 23:46:00,
2013-08-20 19:51:00,76.8,73.7,30.15,ESE,105,0.0,1.0,90,0.00,,---,0.01,VWS V14.01,2013-08-20 23:51:00,
2013-08-20 19:56:00,76.7,73.6,30.15,ESE,104,0.0,0.0,90,0.00,,---,0.01,VWS V14.01,2013-08-20 23:56:00,
2013-08-20 20:01:00,76.5,73.3,30.15,ESE,104,0.0,0.0,90,0.00,,---,0.01,VWS V14.01,2013-08-21 00:01:00,
2013-08-20 20:06:00,76.4,73.6,30.15,ESE,103,0.0,0.0,91,0.00,,---,0.01,VWS V14.01,2013-08-21 00:06:00,
2013-08-20 20:11:00,76.2,73.4,30.15,ESE,103,0.0,1.0,91,0.00,,---,0.01,VWS V14.01,2013-08-21 00:11:00,
2013-08-20 20:16:00,76.1,73.3,30.14,NNE,19,0.0,1.0,91,0.00,,---,0.01,VWS V14.01,2013-08-21 00:16:00,
2013-08-20 20:21:00,76.1,73.3,30.14,NNE,27,0.0,1.0,91,0.00,,---,0.01,VWS V14.01,2013-08-21 00:21:00,
2013-08-20 20:26:00,76.1,73.3,30.14,NNE,29,0.0,2.0,91,0.00,,---,0.01,VWS V14.01,2013-08-21 00:26:00,
2013-08-20 20:31:00,76.1,73.3,30.15,NNE,28,0.0,2.0,91,0.00,,---,0.01,VWS V14.01,2013-08-21 00:31:00,
2013-08-20 20:36:00,76.0,73.2,30.15,NNE,29,0.0,1.0,91,0.00,,---,0.01,VWS V14.01,2013-08-21 00:36:00,
2013-08-20 20:41:00,75.9,73.4,30.15,NNE,29,0.0,1.0,92,0.00,,---,0.01,VWS V14.01,2013-08-21 00:41:00,
2013-08-20 20:46:00,75.7,73.2,30.15,NE,36,0.0,1.0,92,0.00,,---,0.01,VWS V14.01,2013-08-21 00:46:00,
2013-08-20 20:51:00,75.6,73.1,30.16,East,84,0.0,1.0,92,0.00,,---,0.01,VWS V14.01,2013-08-21 00:51:00,
2013-08-20 20:56:00,75.5,73.0,30.16,East,82,0.0,1.0,92,0.00,,---,0.01,VWS V14.01,2013-08-21 00:56:00,
2013-08-20 21:01:00,75.4,72.9,30.16,East,82,0.0,1.0,92,0.00,,---,0.01,VWS V14.01,2013-08-21 01:01:00,
2013-08-20 21:06:00,75.3,72.8,30.16,East,82,0.0,1.0,92,0.00,,---,0.01,VWS V14.01,2013-08-21 01:06:00,
2013-08-20 21:11:00,75.2,72.7,30.16,East,82,0.0,0.0,92,0.00,,---,0.01,VWS V14.01,2013-08-21 01:11:00,
2013-08-20 21:16:00,75.2,73.0,30.16,East,82,0.0,1.0,93,0.00,,---,0.01,VWS V14.01,2013-08-21 01:16:00,
2013-08-20 21:20:00,75.1,72.9,30.16,East,87,0.0,1.0,93,0.00,,---,0.01,VWS V14.01,2013-08-21 01:20:00,
2013-08-20 21:25:00,75.0,72.8,30.17,East,94,0.0,1.0,93,0.00,,---,0.01,VWS V14.01,2013-08-21 01:25:00,
2013-08-20 21:30:00,75.1,72.9,30.17,East,94,0.0,1.0,93,0.00,,---,0.01,VWS V14.01,2013-08-21 01:30:00,
2013-08-20 21:35:00,75.1,72.9,30.17,East,94,0.0,0.0,93,0.00,,---,0.01,VWS V14.01,2013-08-21 01:35:00,
2013-08-20 21:40:00,75.0,72.8,30.17,East,94,0.0,0.0,93,0.00,,---,0.01,VWS V14.01,2013-08-21 01:40:00,
2013-08-20 21:45:00,75.0,72.8,30.17,East,94,0.0,0.0,93,0.00,,---,0.01,VWS V14.01,2013-08-21 01:45:00,
2013-08-20 21:50:00,75.0,72.8,30.17,East,94,0.0,0.0,93,0.00,,---,0.01,VWS V14.01,2013-08-21 01:50:00,
2013-08-20 21:55:00,75.1,72.6,30.17,East,94,0.0,0.0,92,0.00,,---,0.01,VWS V14.01,2013-08-21 01:55:00,
2013-08-20 22:00:00,75.1,72.6,30.18,East,95,0.0,0.0,92,0.00,,---,0.01,VWS V14.01,2013-08-21 02:00:00,
2013-08-20 22:05:00,75.1,72.9,30.18,East,94,1.0,1.0,93,0.00,,---,0.01,VWS V14.01,2013-08-21 02:05:00,
2013-08-20 22:10:00,75.0,72.8,30.18,East,94,0.0,1.0,93,0.00,,---,0.01,VWS V14.01,2013-08-21 02:10:00,
2013-08-20 22:15:00,75.0,72.8,30.18,East,94,0.0,0.0,93,0.00,,---,0.01,VWS V14.01,2013-08-21 02:15:00,
2013-08-20 22:21:00,74.9,72.7,30.18,East,95,0.0,0.0,93,0.00,,---,0.01,VWS V14.01,2013-08-21 02:21:00,
2013-08-20 22:26:00,75.0,72.8,30.18,East,94,1.0,1.0,93,0.00,,---,0.01,VWS V14.01,2013-08-21 02:26:00,
2013-08-20 22:31:00,75.1,72.9,30.18,East,94,0.0,1.0,93,0.00,,---,0.01,VWS V14.01,2013-08-21 02:31:00,
2013-08-20 22:36:00,75.0,72.8,30.18,East,94,0.0,0.0,93,0.00,,---,0.01,VWS V14.01,2013-08-21 02:36:00,
2013-08-20 22:41:00,74.9,72.7,30.18,East,94,0.0,0.0,93,0.00,,---,0.01,VWS V14.01,2013-08-21 02:41:00,
2013-08-20 22:46:00,74.9,72.7,30.19,ENE,61,1.0,1.0,93,0.00,,---,0.01,VWS V14.01,2013-08-21 02:46:00,
2013-08-20 22:51:00,74.9,73.1,30.19,NNE,32,1.0,2.0,94,0.00,,---,0.01,VWS V14.01,2013-08-21 02:51:00,
2013-08-20 22:56:00,74.9,73.1,30.19,NNE,32,0.0,1.0,94,0.00,,---,0.01,VWS V14.01,2013-08-21 02:56:00,
2013-08-20 23:01:00,74.7,72.9,30.19,NNE,32,0.0,0.0,94,0.00,,---,0.01,VWS V14.01,2013-08-21 03:01:00,
2013-08-20 23:06:00,74.6,72.8,30.19,NNE,32,0.0,0.0,94,0.00,,---,0.01,VWS V14.01,2013-08-21 03:06:00,
2013-08-20 23:11:00,74.7,72.9,30.19,NNE,32,0.0,0.0,94,0.00,,---,0.01,VWS V14.01,2013-08-21 03:11:00,
2013-08-20 23:16:00,74.7,72.6,30.19,NNE,32,0.0,0.0,93,0.00,,---,0.01,VWS V14.01,2013-08-21 03:16:00,
2013-08-20 23:21:00,74.8,72.6,30.19,NNE,32,1.0,1.0,93,0.00,,---,0.01,VWS V14.01,2013-08-21 03:21:00,
2013-08-20 23:26:00,74.8,72.6,30.19,NNE,32,0.0,1.0,93,0.00,,---,0.01,VWS V14.01,2013-08-21 03:26:00,
2013-08-20 23:31:00,74.8,72.6,30.19,ENE,63,0.0,1.0,93,0.00,,---,0.01,VWS V14.01,2013-08-21 03:31:00,
2013-08-20 23:36:00,74.6,72.4,30.19,ENE,63,0.0,1.0,93,0.00,,---,0.01,VWS V14.01,2013-08-21 03:36:00,
2013-08-20 23:41:00,74.5,72.7,30.19,ESE,122,1.0,1.0,94,0.00,,---,0.01,VWS V14.01,2013-08-21 03:41:00,
2013-08-20 23:46:00,74.4,72.6,30.18,ESE,103,1.0,1.0,94,0.00,,---,0.01,VWS V14.01,2013-08-21 03:46:00,
2013-08-20 23:51:00,74.3,72.5,30.19,ESE,111,0.0,1.0,94,0.00,,---,0.01,VWS V14.01,2013-08-21 03:51:00,
2013-08-20 23:56:00,74.2,72.7,30.18,ESE,123,0.0,2.0,95,0.00,,---,0.01,VWS V14.01,2013-08-21 03:56:00,